sat.trackr.live / text

‹ back to catalog

SPIP

NORAD 58298 · 2023-174AU

PAYLOAD ACTIVE UNKNOWN

§ Identity

Operator
Country
BEL
Launch date
2023-11-11
Launch site
AFWTR
Launch vehicle
Mass (kg)
RCS (m²)

External: N2YO · Heavens-Above · Gunter

§ Orbital elements

Epoch: 2026-09-21T22:34:58.866240Z

Period
94.22 min
Inclination
97.3773°
Eccentricity
0.0008754
Mean motion
15.28350640 rev/d
Perigee alt
474.7 km
Apogee alt
486.7 km
Semi-major
6,858.9 km
B*
1.0819e-4
RAAN
340.5336°
Arg perigee
193.7035°
Mean anomaly
166.3969°
Rev number
15,955

§ Raw data

SPIP1 58298U 23174AU  26264.94095910  .00002915  00000+0  10819-3 0  99942 58298  97.3773 340.5336 0008754 193.7035 166.3969 15.28350640159555

JSON: /api/v1/satellites/58298 · /tle

For live sub-satellite position, see the globe view (requires WebGL).

§ Visibility from observer

Set your observer location to see the next 7 days of passes ≥ 10°. The values pass through the URL so the page stays shareable.

No JS? Fill the form by hand. The geolocation button needs JavaScript.